Weather History for Huntsville Madison, AL

Change the Weather History Date:

Sunday, November 11, 2012

  Actual Average (KHSV) Record (KHSV)
Temperature  
Mean Temperature 54 °F 54 °F  
Max Temperature 69 °F 66 °F 81 °F (1945)
Min Temperature 39 °F 43 °F 22 °F (1946)
Degree Days  
Heating Degree Days 11 11  
Month to date heating degree days 104  
Since 1 July heating degree days 255  
Cooling Degree Days 0 0  
Month to date cooling degree days 7  
Year to date cooling degree days 1947  
Growing Degree Days 4 (Base 50)    
Moisture  
Dew Point 39 °F    
Average Humidity 53    
Maximum Humidity 87    
Minimum Humidity 26    
Precipitation  
Precipitation 0.00 in 0.14 in 1.77 in (1935)
Month to date precipitation 1.58  
Year to date precipitation 45.21  
Snow  
Snow 0.00 in - - ()
Month to date snowfall  
Since 1 July snowfall  
Since 1 September snowfall  
Snow Depth -    
Sea Level Pressure  
Sea Level Pressure 30.24 in    
Wind  
Wind Speed 6 mph (SSE)    
Max Wind Speed 20 mph    
Max Gust Speed 28 mph    
Visibility 10 miles    
Events      
T = Trace of Precipitation, MM = Missing Value Source: NWS Daily Summary

Daily Weather History Graph

Daily Weather History Graph

Search for Another Location

Airport:

Trip Planner

Search our weather history database for the weather conditions in past years. The results will help you decide how hot, cold, wet, or windy it might be!

Date:

Astronomy

Nov. 11, 2012 Rise Set
Actual Time 6:17 AM CST 4:43 PM CST
Civil Twilight 5:50 AM CST 5:09 PM CST
Nautical Twilight 5:19 AM CST 5:40 PM CST
Astronomical Twilight 4:50 AM CST 6:10 PM CST
Moon 3:35 AM CST (11/11) 3:02 PM CST (11/11)
Length of Visible Light 11h 19m
Length of Day
10h 26m
Waning Crescent, 7% of the Moon is Illuminated
Nov 11
Waning Crescent
Nov 13
New
Nov 20
First Quarter
Nov 28
Full
Dec 6
Last Quarter

Hourly Weather History & Observations

Time (CST) Temp. Windchill Dew Point Humidity Pressure Visibility Wind Dir Wind Speed Gust Speed Precip Events Conditions
12:15 AM 42.8 °F - 35.6 °F 76% 30.26 in 10.0 mi Calm Calm - N/A   Clear
12:35 AM 41.0 °F - 35.6 °F 81% 30.25 in 10.0 mi Calm Calm - N/A   Clear
12:55 AM 41.0 °F - 35.6 °F 81% 30.24 in 10.0 mi Calm Calm - N/A   Clear
1:15 AM 41.0 °F - 33.8 °F 76% 30.24 in 10.0 mi Calm Calm - N/A   Clear
1:35 AM 41.0 °F 39.0 °F 35.6 °F 81% 30.23 in 10.0 mi SE 3.5 mph - N/A   Clear
1:55 AM 41.0 °F - 35.6 °F 81% 30.23 in 10.0 mi Calm Calm - N/A   Clear
2:15 AM 41.0 °F - 33.8 °F 76% 30.24 in 10.0 mi Calm Calm - N/A   Clear
2:35 AM 41.0 °F - 33.8 °F 76% 30.24 in 10.0 mi Calm Calm - N/A   Clear
2:55 AM 41.0 °F - 33.8 °F 76% 30.24 in 10.0 mi Calm Calm - N/A   Clear
3:15 AM 39.2 °F - 35.6 °F 87% 30.25 in 10.0 mi Calm Calm - N/A   Clear
3:35 AM 39.2 °F - 35.6 °F 87% 30.25 in 10.0 mi Calm Calm - N/A   Clear
3:55 AM 39.2 °F - 35.6 °F 87% 30.26 in 10.0 mi Calm Calm - N/A   Clear
4:15 AM 39.2 °F - 35.6 °F 87% 30.27 in 10.0 mi Calm Calm - N/A   Clear
4:35 AM 39.2 °F - 35.6 °F 87% 30.28 in 10.0 mi Calm Calm - N/A   Clear
4:55 AM 41.0 °F - 35.6 °F 81% 30.29 in 10.0 mi Calm Calm - N/A   Clear
5:35 AM 41.0 °F - 35.6 °F 81% 30.29 in 10.0 mi Calm Calm - N/A   Clear
5:55 AM 39.2 °F - 33.8 °F 81% 30.28 in 10.0 mi Calm Calm - N/A   Clear
6:15 AM 39.2 °F 35.9 °F 33.8 °F 81% 30.29 in 10.0 mi SE 4.6 mph - N/A   Clear
6:35 AM 50.0 °F - 33.8 °F 54% 30.30 in 10.0 mi SE 4.6 mph - N/A   Clear
6:55 AM 44.6 °F - 33.8 °F 66% 30.31 in 10.0 mi Calm Calm - N/A   Clear
7:35 AM 53.6 °F - 33.8 °F 47% 30.31 in 10.0 mi SE 8.1 mph - N/A   Clear
7:55 AM 55.4 °F - 33.8 °F 44% 30.32 in 10.0 mi SE 6.9 mph - N/A   Clear
8:15 AM 55.4 °F - 33.8 °F 44% 30.32 in 10.0 mi SE 9.2 mph - N/A   Clear
8:35 AM 59.0 °F - 32.0 °F 36% 30.31 in 10.0 mi SE 12.7 mph 17.3 mph N/A   Clear
8:55 AM 59.0 °F - 32.0 °F 36% 30.32 in 10.0 mi SSE 13.8 mph 18.4 mph N/A   Clear
9:35 AM 62.6 °F - 32.0 °F 32% 30.31 in 10.0 mi South 10.4 mph 20.7 mph N/A   Clear
9:55 AM 62.6 °F - 32.0 °F 32% 30.31 in 10.0 mi South 15.0 mph 20.7 mph N/A   Clear
10:15 AM 64.4 °F - 30.2 °F 28% 30.31 in 10.0 mi South 15.0 mph 21.9 mph N/A   Clear
10:35 AM 66.2 °F - 32.0 °F 28% 30.30 in 10.0 mi South 15.0 mph 24.2 mph N/A   Clear
10:55 AM 68.0 °F - 32.0 °F 26% 30.30 in 10.0 mi SSE 11.5 mph 18.4 mph N/A   Clear
11:15 AM 66.2 °F - 35.6 °F 32% 30.29 in 10.0 mi SSE 17.3 mph 26.5 mph N/A   Clear
11:35 AM 66.2 °F - 37.4 °F 35% 30.28 in 10.0 mi SSE 15.0 mph 25.3 mph N/A   Clear
11:55 AM 66.2 °F - 41.0 °F 40% 30.27 in 10.0 mi SSE 13.8 mph 20.7 mph N/A   Clear
12:15 PM 66.2 °F - 41.0 °F 40% 30.26 in 10.0 mi South 12.7 mph 18.4 mph N/A   Clear
12:35 PM 68.0 °F - 41.0 °F 37% 30.25 in 10.0 mi SSE 12.7 mph 20.7 mph N/A   Clear
12:55 PM 68.0 °F - 41.0 °F 37% 30.24 in 10.0 mi SSE 19.6 mph 26.5 mph N/A   Clear
1:15 PM 68.0 °F - 41.0 °F 37% 30.24 in 10.0 mi SSE 12.7 mph 24.2 mph N/A   Clear
1:35 PM 68.0 °F - 41.0 °F 37% 30.23 in 10.0 mi SSE 19.6 mph 25.3 mph N/A   Clear
1:55 PM 69.8 °F - 41.0 °F 35% 30.21 in 10.0 mi SSE 16.1 mph 23.0 mph N/A   Clear
2:15 PM 68.0 °F - 41.0 °F 37% 30.22 in 10.0 mi SSE 16.1 mph 25.3 mph N/A   Clear
2:35 PM 68.0 °F - 41.0 °F 37% 30.22 in 10.0 mi SSE 13.8 mph 26.5 mph N/A   Clear
2:55 PM 69.8 °F - 41.0 °F 35% 30.21 in 10.0 mi South 13.8 mph 19.6 mph N/A   Clear
3:15 PM 69.8 °F - 41.0 °F 35% 30.21 in 10.0 mi SSE 12.7 mph 20.7 mph N/A   Clear
3:35 PM 68.0 °F - 42.8 °F 40% 30.21 in 10.0 mi SSE 12.7 mph 17.3 mph N/A   Clear
3:55 PM 68.0 °F - 42.8 °F 40% 30.20 in 10.0 mi SSE 15.0 mph 18.4 mph N/A   Clear
4:15 PM 66.2 °F - 41.0 °F 40% 30.20 in 10.0 mi SSE 9.2 mph 24.2 mph N/A   Clear
4:35 PM 66.2 °F - 41.0 °F 40% 30.21 in 10.0 mi South 8.1 mph 17.3 mph N/A   Clear
4:55 PM 64.4 °F - 42.8 °F 45% 30.20 in 10.0 mi SSE 8.1 mph - N/A   Clear
5:15 PM 64.4 °F - 42.8 °F 45% 30.20 in 10.0 mi SSE 9.2 mph - N/A   Clear
5:35 PM 64.4 °F - 42.8 °F 45% 30.20 in 10.0 mi SSE 9.2 mph - N/A   Clear
5:55 PM 64.4 °F - 42.8 °F 45% 30.21 in 10.0 mi SSE 9.2 mph 16.1 mph N/A   Clear
6:15 PM 64.4 °F - 42.8 °F 45% 30.20 in 10.0 mi SSE 9.2 mph - N/A   Clear
6:35 PM 64.4 °F - 42.8 °F 45% 30.20 in 10.0 mi SSE 10.4 mph - N/A   Clear
6:55 PM 64.4 °F - 42.8 °F 45% 30.20 in 10.0 mi SSE 10.4 mph 17.3 mph N/A   Clear
7:15 PM 64.4 °F - 42.8 °F 45% 30.21 in 10.0 mi SSE 10.4 mph 18.4 mph N/A   Clear
7:35 PM 62.6 °F - 42.8 °F 48% 30.20 in 10.0 mi SE 10.4 mph - N/A   Clear
7:55 PM 62.6 °F - 42.8 °F 48% 30.19 in 10.0 mi SE 9.2 mph 16.1 mph N/A   Clear
8:15 PM 62.6 °F - 42.8 °F 48% 30.19 in 10.0 mi SE 10.4 mph - N/A   Clear
8:35 PM 62.6 °F - 44.6 °F 52% 30.19 in 10.0 mi SE 11.5 mph 18.4 mph N/A   Clear
8:55 PM 62.6 °F - 44.6 °F 52% 30.19 in 10.0 mi SE 10.4 mph - N/A   Clear
9:15 PM 62.6 °F - 44.6 °F 52% 30.19 in 10.0 mi SE 9.2 mph 18.4 mph N/A   Clear
9:35 PM 62.6 °F - 44.6 °F 52% 30.18 in 10.0 mi SE 9.2 mph 16.1 mph N/A   Clear
9:55 PM 62.6 °F - 44.6 °F 52% 30.17 in 10.0 mi SE 11.5 mph 19.6 mph N/A   Clear
10:15 PM 62.6 °F - 44.6 °F 52% 30.16 in 10.0 mi SE 10.4 mph 17.3 mph N/A   Clear
10:35 PM 62.6 °F - 44.6 °F 52% 30.15 in 10.0 mi SE 16.1 mph 23.0 mph N/A   Clear
10:55 PM 62.6 °F - 44.6 °F 52% 30.16 in 10.0 mi SSE 16.1 mph 25.3 mph N/A   Clear
11:15 PM 62.6 °F - 44.6 °F 52% 30.16 in 10.0 mi SSE 13.8 mph 21.9 mph N/A   Clear
11:35 PM 62.6 °F - 44.6 °F 52% 30.15 in 10.0 mi SSE 19.6 mph 24.2 mph N/A   Clear
11:55 PM 62.6 °F - 44.6 °F 52% 30.14 in 10.0 mi SSE 15.0 mph 27.6 mph N/A   Clear